Time,TemperatureF,DewpointF,PressureIn,WindDirection,WindDirectionDegrees,WindSpeedMPH,WindSpeedGustMPH,Humidity,HourlyPrecipIn,Conditions,Clouds,dailyrainin,SoftwareType,DateUTC
2013-05-03 00:04:00,56.6,46.9,30.37,NE,52,0.0,3.0,70,0.00,FEW,OVC,0.00,WeatherDisplay:10.37,2013-05-03 04:04:00,
2013-05-03 00:09:00,56.5,46.4,30.37,NE,52,1.0,5.0,69,0.00,FEW,OVC,0.00,WeatherDisplay:10.37,2013-05-03 04:09:00,
2013-05-03 00:14:00,56.4,46.4,30.37,ENE,62,1.0,9.0,69,0.00,FEW,OVC,0.00,WeatherDisplay:10.37,2013-05-03 04:14:00,
2013-05-03 00:19:00,56.2,46.2,30.37,ENE,66,1.0,4.0,69,0.00,FEW,OVC,0.00,WeatherDisplay:10.37,2013-05-03 04:19:00,
2013-05-03 00:24:00,56.0,46.3,30.36,NE,56,0.0,8.0,70,0.00,FEW,OVC,0.00,WeatherDisplay:10.37,2013-05-03 04:24:00,
2013-05-03 00:29:00,55.7,46.1,30.37,NE,44,0.0,4.0,70,0.00,FEW,OVC,0.00,WeatherDisplay:10.37,2013-05-03 04:29:00,
2013-05-03 00:34:00,55.4,45.8,30.37,NNE,27,1.0,8.0,70,0.00,FEW,OVC,0.00,WeatherDisplay:10.37,2013-05-03 04:34:00,
2013-05-03 00:39:00,55.2,45.6,30.37,NE,43,2.0,8.0,70,0.00,FEW,OVC,0.00,WeatherDisplay:10.37,2013-05-03 04:39:00,
2013-05-03 00:44:00,55.1,45.5,30.37,NE,55,0.0,5.0,70,0.00,FEW,OVC,0.00,WeatherDisplay:10.37,2013-05-03 04:44:00,
2013-05-03 00:49:00,54.8,45.2,30.37,NE,36,0.0,5.0,70,0.00,FEW,OVC,0.00,WeatherDisplay:10.37,2013-05-03 04:49:00,
2013-05-03 00:54:00,54.7,45.1,30.37,NNE,28,1.0,6.0,70,0.00,FEW,OVC,0.00,WeatherDisplay:10.37,2013-05-03 04:54:00,
2013-05-03 00:59:00,54.4,45.2,30.37,NE,39,0.0,6.0,71,0.00,FEW,OVC,0.00,WeatherDisplay:10.37,2013-05-03 04:59:00,
2013-05-03 01:04:00,54.4,44.8,30.37,ENE,69,2.0,9.0,70,0.00,FEW,OVC,0.00,WeatherDisplay:10.37,2013-05-03 05:04:00,
2013-05-03 01:09:00,54.3,45.1,30.37,ENE,74,0.0,4.0,71,0.00,FEW,OVC,0.00,WeatherDisplay:10.37,2013-05-03 05:09:00,
2013-05-03 01:14:00,54.1,44.5,30.37,ENE,59,0.0,2.0,70,0.00,FEW,OVC,0.00,WeatherDisplay:10.37,2013-05-03 05:14:00,
2013-05-03 01:19:00,54.1,44.1,30.37,ENE,62,0.0,3.0,69,0.00,FEW,OVC,0.00,WeatherDisplay:10.37,2013-05-03 05:19:00,
2013-05-03 01:24:00,54.0,44.5,30.37,ENE,64,1.0,6.0,70,0.00,FEW,OVC,0.00,WeatherDisplay:10.37,2013-05-03 05:24:00,
2013-05-03 01:29:00,54.0,44.1,30.37,NNE,18,2.0,7.0,69,0.00,FEW,OVC,0.00,WeatherDisplay:10.37,2013-05-03 05:29:00,
2013-05-03 01:34:00,54.0,44.1,30.37,NE,35,1.0,8.0,69,0.00,FEW,OVC,0.00,WeatherDisplay:10.37,2013-05-03 05:34:00,
2013-05-03 01:39:00,53.6,44.0,30.37,ENE,62,0.0,3.0,70,0.00,FEW,OVC,0.00,WeatherDisplay:10.37,2013-05-03 05:39:00,
2013-05-03 01:44:00,53.2,43.7,30.37,ENE,62,1.0,7.0,70,0.00,FEW,OVC,0.00,WeatherDisplay:10.37,2013-05-03 05:44:00,
2013-05-03 01:49:00,53.2,43.7,30.37,NE,43,0.0,5.0,70,0.00,FEW,OVC,0.00,WeatherDisplay:10.37,2013-05-03 05:49:00,
2013-05-03 01:54:00,52.9,43.4,30.37,NNE,28,0.0,5.0,70,0.00,FEW,OVC,0.00,WeatherDisplay:10.37,2013-05-03 05:54:00,
2013-05-03 01:59:00,52.6,43.5,30.37,NNE,18,0.0,8.0,71,0.00,FEW,OVC,0.00,WeatherDisplay:10.37,2013-05-03 05:59:00,
2013-05-03 02:04:00,52.5,43.4,30.37,NNE,28,0.0,3.0,71,0.00,FEW,OVC,0.00,WeatherDisplay:10.37,2013-05-03 06:04:00,
2013-05-03 02:09:00,52.2,43.1,30.37,NNE,18,0.0,4.0,71,0.00,FEW,OVC,0.00,WeatherDisplay:10.37,2013-05-03 06:09:00,
2013-05-03 02:14:00,52.1,43.0,30.37,NE,42,0.0,6.0,71,0.00,SKC,OVC,0.00,WeatherDisplay:10.37,2013-05-03 06:14:00,
2013-05-03 02:19:00,51.9,42.8,30.37,ENE,60,0.0,1.0,71,0.00,SKC,OVC,0.00,WeatherDisplay:10.37,2013-05-03 06:19:00,
2013-05-03 02:24:00,51.7,43.0,30.37,NE,46,0.0,1.0,72,0.00,SKC,OVC,0.00,WeatherDisplay:10.37,2013-05-03 06:24:00,
2013-05-03 02:29:00,51.7,43.0,30.37,NE,40,0.0,1.0,72,0.00,SKC,OVC,0.00,WeatherDisplay:10.37,2013-05-03 06:29:00,
2013-05-03 02:34:00,51.7,42.6,30.37,NE,46,1.0,3.0,71,0.00,SKC,OVC,0.00,WeatherDisplay:10.37,2013-05-03 06:34:00,
2013-05-03 02:39:00,51.8,42.3,30.37,NE,54,0.0,6.0,70,0.00,SKC,OVC,0.00,WeatherDisplay:10.37,2013-05-03 06:39:00,
2013-05-03 02:44:00,51.8,42.3,30.37,NE,48,1.0,8.0,70,0.00,SKC,OVC,0.00,WeatherDisplay:10.37,2013-05-03 06:44:00,
2013-05-03 02:54:00,51.4,42.3,30.38,NE,48,1.0,6.0,71,0.00,SKC,OVC,0.00,WeatherDisplay:10.37,2013-05-03 06:54:00,
2013-05-03 02:59:00,51.5,42.0,30.38,ENE,58,1.0,8.0,70,0.00,SKC,OVC,0.00,WeatherDisplay:10.37,2013-05-03 06:59:00,
2013-05-03 03:04:00,51.5,42.0,30.38,ENE,64,1.0,4.0,70,0.00,SKC,OVC,0.00,WeatherDisplay:10.37,2013-05-03 07:04:00,
2013-05-03 03:09:00,51.4,41.9,30.38,ENE,67,1.0,8.0,70,0.00,SKC,OVC,0.00,WeatherDisplay:10.37,2013-05-03 07:09:00,
2013-05-03 03:14:00,51.3,41.8,30.38,NE,39,1.0,12.0,70,0.00,SKC,OVC,0.00,WeatherDisplay:10.37,2013-05-03 07:14:00,
2013-05-03 03:19:00,51.1,41.7,30.38,NE,52,1.0,9.0,70,0.00,SKC,OVC,0.00,WeatherDisplay:10.37,2013-05-03 07:19:00,
2013-05-03 03:24:00,50.9,41.5,30.38,East,81,2.0,8.0,70,0.00,SKC,OVC,0.00,WeatherDisplay:10.37,2013-05-03 07:24:00,
2013-05-03 03:29:00,50.9,41.5,30.39,NE,54,0.0,8.0,70,0.00,SKC,OVC,0.00,WeatherDisplay:10.37,2013-05-03 07:29:00,
2013-05-03 03:34:00,50.8,41.4,30.39,NE,54,0.0,5.0,70,0.00,SKC,OVC,0.00,WeatherDisplay:10.37,2013-05-03 07:34:00,
2013-05-03 03:39:00,50.6,41.6,30.39,ENE,60,1.0,5.0,71,0.00,SKC,OVC,0.00,WeatherDisplay:10.37,2013-05-03 07:39:00,
2013-05-03 03:44:00,50.5,41.1,30.39,ENE,76,0.0,4.0,70,0.00,SKC,OVC,0.00,WeatherDisplay:10.37,2013-05-03 07:44:00,
2013-05-03 03:49:00,50.3,41.3,30.39,ENE,59,0.0,5.0,71,0.00,SKC,OVC,0.00,WeatherDisplay:10.37,2013-05-03 07:49:00,
2013-05-03 03:54:00,50.2,40.8,30.40,NE,43,0.0,4.0,70,0.00,SKC,OVC,0.00,WeatherDisplay:10.37,2013-05-03 07:54:00,
2013-05-03 03:59:00,50.0,41.0,30.40,NE,48,0.0,3.0,71,0.00,SKC,OVC,0.00,WeatherDisplay:10.37,2013-05-03 07:59:00,
2013-05-03 04:04:00,49.7,40.7,30.40,ENE,70,1.0,7.0,71,0.00,SKC,OVC,0.00,WeatherDisplay:10.37,2013-05-03 08:04:00,
2013-05-03 04:09:00,49.5,40.9,30.40,ENE,62,1.0,4.0,72,0.00,SKC,OVC,0.00,WeatherDisplay:10.37,2013-05-03 08:09:00,
2013-05-03 04:14:00,49.4,40.7,30.40,NE,46,0.0,3.0,72,0.00,SKC,OVC,0.00,WeatherDisplay:10.37,2013-05-03 08:14:00,
2013-05-03 04:19:00,49.1,40.8,30.40,ENE,58,0.0,3.0,73,0.00,SKC,OVC,0.00,WeatherDisplay:10.37,2013-05-03 08:19:00,
2013-05-03 04:24:00,48.9,40.6,30.41,NE,52,0.0,3.0,73,0.00,SKC,OVC,0.00,WeatherDisplay:10.37,2013-05-03 08:24:00,
2013-05-03 04:29:00,48.6,40.7,30.41,NNE,20,0.0,3.0,74,0.00,SKC,OVC,0.00,WeatherDisplay:10.37,2013-05-03 08:29:00,
2013-05-03 04:34:00,48.5,40.6,30.41,NNE,20,0.0,4.0,74,0.00,SKC,OVC,0.00,WeatherDisplay:10.37,2013-05-03 08:34:00,
2013-05-03 04:39:00,48.4,40.5,30.41,NNE,32,0.0,5.0,74,0.00,SKC,OVC,0.00,WeatherDisplay:10.37,2013-05-03 08:39:00,
2013-05-03 04:44:00,48.3,40.4,30.41,NE,46,0.0,5.0,74,0.00,SKC,OVC,0.00,WeatherDisplay:10.37,2013-05-03 08:44:00,
2013-05-03 04:49:00,48.2,40.6,30.41,NE,54,0.0,3.0,75,0.00,SKC,OVC,0.00,WeatherDisplay:10.37,2013-05-03 08:49:00,
2013-05-03 04:54:00,48.0,40.1,30.41,NE,43,0.0,5.0,74,0.00,SKC,OVC,0.00,WeatherDisplay:10.37,2013-05-03 08:54:00,
2013-05-03 04:59:00,47.8,40.3,30.41,NE,39,0.0,1.0,75,0.00,SKC,OVC,0.00,WeatherDisplay:10.37,2013-05-03 08:59:00,
2013-05-03 05:04:00,47.8,40.3,30.41,NE,55,0.0,2.0,75,0.00,SKC,OVC,0.00,WeatherDisplay:10.37,2013-05-03 09:04:00,
2013-05-03 05:09:00,47.7,39.8,30.42,NE,46,0.0,2.0,74,0.00,SKC,OVC,0.00,WeatherDisplay:10.37,2013-05-03 09:09:00,
2013-05-03 05:14:00,47.7,39.8,30.42,NE,39,1.0,4.0,74,0.00,SKC,OVC,0.00,WeatherDisplay:10.37,2013-05-03 09:14:00,
2013-05-03 05:19:00,47.6,40.1,30.42,ENE,59,0.0,2.0,75,0.00,SKC,OVC,0.00,WeatherDisplay:10.37,2013-05-03 09:19:00,
2013-05-03 05:24:00,47.6,39.7,30.42,North,8,0.0,4.0,74,0.00,SKC,OVC,0.00,WeatherDisplay:10.37,2013-05-03 09:24:00,
2013-05-03 05:29:00,47.5,39.6,30.42,NNE,18,0.0,6.0,74,0.00,SKC,OVC,0.00,WeatherDisplay:10.37,2013-05-03 09:29:00,
2013-05-03 05:34:00,47.2,39.7,30.42,NE,46,0.0,3.0,75,0.00,SKC,OVC,0.00,WeatherDisplay:10.37,2013-05-03 09:34:00,
2013-05-03 05:39:00,47.3,39.4,30.42,NE,53,0.0,3.0,74,0.00,SKC,OVC,0.00,WeatherDisplay:10.37,2013-05-03 09:39:00,
2013-05-03 05:44:00,47.1,39.6,30.43,SE,128,0.0,1.0,75,0.00,SKC,OVC,0.00,WeatherDisplay:10.37,2013-05-03 09:44:00,
2013-05-03 05:49:00,47.1,39.6,30.43,East,93,1.0,3.0,75,0.00,SKC,OVC,0.00,WeatherDisplay:10.37,2013-05-03 09:49:00,
2013-05-03 05:54:00,47.1,39.6,30.43,NE,56,1.0,6.0,75,0.00,SKC,OVC,0.00,WeatherDisplay:10.37,2013-05-03 09:54:00,
2013-05-03 05:59:00,46.9,39.4,30.43,ENE,60,0.0,2.0,75,0.00,SKC,OVC,0.00,WeatherDisplay:10.37,2013-05-03 09:59:00,
2013-05-03 06:04:00,46.7,39.5,30.43,ENE,61,1.0,6.0,76,0.00,SKC,OVC,0.00,WeatherDisplay:10.37,2013-05-03 10:04:00,
2013-05-03 06:09:00,47.0,39.5,30.44,NE,54,0.0,4.0,75,0.00,SKC,OVC,0.00,WeatherDisplay:10.37,2013-05-03 10:09:00,
2013-05-03 06:14:00,47.1,39.2,30.44,NE,53,0.0,4.0,74,0.00,FEW,OVC,0.00,WeatherDisplay:10.37,2013-05-03 10:14:00,
2013-05-03 06:19:00,47.2,39.7,30.44,ENE,66,0.0,3.0,75,0.00,FEW,OVC,0.00,WeatherDisplay:10.37,2013-05-03 10:19:00,
2013-05-03 06:24:00,47.0,39.2,30.44,East,80,0.0,3.0,74,0.00,FEW,OVC,0.00,WeatherDisplay:10.37,2013-05-03 10:24:00,
2013-05-03 06:29:00,47.2,39.3,30.44,ENE,66,1.0,2.0,74,0.00,FEW,OVC,0.00,WeatherDisplay:10.37,2013-05-03 10:29:00,
2013-05-03 06:34:00,47.3,39.4,30.44,ENE,67,0.0,2.0,74,0.00,FEW,OVC,0.00,WeatherDisplay:10.37,2013-05-03 10:34:00,
2013-05-03 06:39:00,47.5,39.7,30.45,ENE,77,0.0,4.0,74,0.00,FEW,OVC,0.00,WeatherDisplay:10.37,2013-05-03 10:39:00,
2013-05-03 06:44:00,47.7,39.8,30.45,East,79,0.0,7.0,74,0.00,FEW,OVC,0.00,WeatherDisplay:10.37,2013-05-03 10:44:00,
2013-05-03 06:49:00,47.9,39.7,30.45,NE,53,0.0,4.0,73,0.00,FEW,OVC,0.00,WeatherDisplay:10.37,2013-05-03 10:49:00,
2013-05-03 06:59:00,48.3,39.7,30.45,NE,50,1.0,4.0,72,0.00,FEW,OVC,0.00,WeatherDisplay:10.37,2013-05-03 10:59:00,
2013-05-03 07:04:00,48.5,39.5,30.45,ENE,64,1.0,3.0,71,0.00,FEW,OVC,0.00,WeatherDisplay:10.37,2013-05-03 11:04:00,
2013-05-03 07:09:00,48.9,39.5,30.45,ENE,59,1.0,7.0,70,0.00,FEW,OVC,0.00,WeatherDisplay:10.37,2013-05-03 11:09:00,
2013-05-03 07:14:00,49.1,39.7,30.45,ENE,62,1.0,9.0,70,0.00,FEW,OVC,0.00,WeatherDisplay:10.37,2013-05-03 11:14:00,
2013-05-03 07:19:00,49.4,40.4,30.45,NE,47,1.0,6.0,71,0.00,FEW,OVC,0.00,WeatherDisplay:10.37,2013-05-03 11:19:00,
2013-05-03 07:24:00,49.6,39.9,30.45,NE,35,0.0,3.0,69,0.00,FEW,OVC,0.00,WeatherDisplay:10.37,2013-05-03 11:24:00,
2013-05-03 07:29:00,49.9,39.4,30.45,ENE,66,2.0,7.0,67,0.00,FEW,OVC,0.00,WeatherDisplay:10.37,2013-05-03 11:29:00,
2013-05-03 07:34:00,50.2,39.7,30.45,East,92,1.0,7.0,67,0.00,FEW,OVC,0.00,WeatherDisplay:10.37,2013-05-03 11:34:00,
2013-05-03 07:39:00,50.2,39.7,30.45,ENE,77,2.0,9.0,67,0.00,FEW,OVC,0.00,WeatherDisplay:10.37,2013-05-03 11:39:00,
2013-05-03 07:44:00,50.5,40.3,30.45,ENE,74,0.0,3.0,68,0.00,FEW,OVC,0.00,WeatherDisplay:10.37,2013-05-03 11:44:00,
2013-05-03 07:49:00,50.9,40.3,30.45,East,93,0.0,0.0,67,0.00,FEW,OVC,0.00,WeatherDisplay:10.37,2013-05-03 11:49:00,
2013-05-03 07:54:00,51.2,40.2,30.46,East,82,0.0,3.0,66,0.00,FEW,OVC,0.00,WeatherDisplay:10.37,2013-05-03 11:54:00,
2013-05-03 07:59:00,51.5,40.5,30.45,ESE,111,0.0,5.0,66,0.00,FEW,OVC,0.00,WeatherDisplay:10.37,2013-05-03 11:59:00,
2013-05-03 08:04:00,51.5,39.7,30.45,ENE,69,1.0,9.0,64,0.00,FEW,OVC,0.00,WeatherDisplay:10.37,2013-05-03 12:04:00,
2013-05-03 08:09:00,51.7,40.3,30.45,NE,43,0.0,6.0,65,0.00,FEW,OVC,0.00,WeatherDisplay:10.37,2013-05-03 12:09:00,
2013-05-03 08:14:00,52.2,40.4,30.46,NNE,23,1.0,6.0,64,0.00,FEW,OVC,0.00,WeatherDisplay:10.37,2013-05-03 12:14:00,
2013-05-03 08:19:00,52.1,39.9,30.45,ENE,59,2.0,8.0,63,0.00,FEW,OVC,0.00,WeatherDisplay:10.37,2013-05-03 12:19:00,
2013-05-03 08:24:00,52.2,40.0,30.46,ENE,66,2.0,7.0,63,0.00,FEW,OVC,0.00,WeatherDisplay:10.37,2013-05-03 12:24:00,
2013-05-03 08:29:00,52.7,39.6,30.46,ENE,76,1.0,5.0,61,0.00,FEW,OVC,0.00,WeatherDisplay:10.37,2013-05-03 12:29:00,
2013-05-03 08:34:00,53.1,40.4,30.45,East,85,0.0,5.0,62,0.00,FEW,OVC,0.00,WeatherDisplay:10.37,2013-05-03 12:34:00,
2013-05-03 08:39:00,53.9,41.1,30.45,East,94,1.0,4.0,62,0.00,FEW,OVC,0.00,WeatherDisplay:10.37,2013-05-03 12:39:00,
2013-05-03 08:44:00,54.0,40.0,30.45,East,92,2.0,5.0,59,0.00,FEW,OVC,0.00,WeatherDisplay:10.37,2013-05-03 12:44:00,
2013-05-03 08:49:00,54.2,40.2,30.45,ENE,73,1.0,3.0,59,0.00,FEW,OVC,0.00,WeatherDisplay:10.37,2013-05-03 12:49:00,
2013-05-03 08:54:00,54.6,40.1,30.45,ENE,72,2.0,7.0,58,0.00,FEW,OVC,0.00,WeatherDisplay:10.37,2013-05-03 12:54:00,
2013-05-03 08:59:00,54.5,40.9,30.45,NE,51,1.0,9.0,60,0.00,FEW,OVC,0.00,WeatherDisplay:10.37,2013-05-03 12:59:00,
2013-05-03 09:04:00,54.6,40.6,30.45,ENE,57,1.0,4.0,59,0.00,FEW,OVC,0.00,WeatherDisplay:10.37,2013-05-03 13:04:00,
2013-05-03 09:09:00,54.8,41.2,30.45,NE,54,1.0,6.0,60,0.00,FEW,OVC,0.00,WeatherDisplay:10.37,2013-05-03 13:09:00,
2013-05-03 09:19:00,57.0,41.5,30.45,ENE,59,0.0,4.0,56,0.00,FEW,OVC,0.00,WeatherDisplay:10.37,2013-05-03 13:19:00,
2013-05-03 09:24:00,56.5,41.4,30.45,East,97,2.0,7.0,57,0.00,FEW,OVC,0.00,WeatherDisplay:10.37,2013-05-03 13:24:00,
2013-05-03 09:29:00,56.4,40.9,30.45,East,85,0.0,4.0,56,0.00,FEW,OVC,0.00,WeatherDisplay:10.37,2013-05-03 13:29:00,
2013-05-03 09:34:00,57.2,41.6,30.45,ENE,57,2.0,7.0,56,0.00,FEW,OVC,0.00,WeatherDisplay:10.37,2013-05-03 13:34:00,
2013-05-03 09:39:00,56.4,40.4,30.45,ENE,70,2.0,6.0,55,0.00,FEW,OVC,0.00,WeatherDisplay:10.37,2013-05-03 13:39:00,
2013-05-03 09:44:00,57.6,42.9,30.45,East,80,1.0,8.0,58,0.00,FEW,OVC,0.00,WeatherDisplay:10.37,2013-05-03 13:44:00,
2013-05-03 09:49:00,57.7,41.7,30.45,ESE,111,1.0,7.0,55,0.00,FEW,OVC,0.00,WeatherDisplay:10.37,2013-05-03 13:49:00,
2013-05-03 09:54:00,57.9,41.3,30.45,East,84,1.0,8.0,54,0.00,FEW,OVC,0.00,WeatherDisplay:10.37,2013-05-03 13:54:00,
2013-05-03 09:59:00,58.2,41.7,30.45,East,95,2.0,12.0,54,0.00,FEW,OVC,0.00,WeatherDisplay:10.37,2013-05-03 13:59:00,
2013-05-03 10:04:00,58.1,41.5,30.44,East,91,1.0,4.0,54,0.00,FEW,OVC,0.00,WeatherDisplay:10.37,2013-05-03 14:04:00,
2013-05-03 10:09:00,58.4,41.4,30.44,ENE,65,3.0,12.0,53,0.00,FEW,OVC,0.00,WeatherDisplay:10.37,2013-05-03 14:09:00,
2013-05-03 10:19:00,60.6,43.3,30.44,ENE,76,0.0,3.0,53,0.00,FEW,OVC,0.00,WeatherDisplay:10.37,2013-05-03 14:19:00,
2013-05-03 10:24:00,60.4,43.2,30.44,East,80,1.0,7.0,53,0.00,FEW,OVC,0.00,WeatherDisplay:10.37,2013-05-03 14:24:00,
2013-05-03 10:29:00,60.9,42.6,30.44,ENE,78,1.0,6.0,51,0.00,FEW,OVC,0.00,WeatherDisplay:10.37,2013-05-03 14:29:00,
2013-05-03 10:34:00,60.7,42.5,30.44,East,89,3.0,8.0,51,0.00,FEW,OVC,0.00,WeatherDisplay:10.37,2013-05-03 14:34:00,
2013-05-03 10:39:00,61.1,41.3,30.44,East,82,3.0,8.0,48,0.00,FEW,OVC,0.00,WeatherDisplay:10.37,2013-05-03 14:39:00,
2013-05-03 10:44:00,61.2,40.8,30.44,East,94,1.0,9.0,47,0.00,FEW,OVC,0.00,WeatherDisplay:10.37,2013-05-03 14:44:00,
2013-05-03 10:49:00,61.9,40.9,30.44,East,83,2.0,8.0,46,0.00,FEW,OVC,0.00,WeatherDisplay:10.37,2013-05-03 14:49:00,
2013-05-03 10:54:00,62.5,42.0,30.44,ENE,73,2.0,8.0,47,0.00,FEW,OVC,0.00,WeatherDisplay:10.37,2013-05-03 14:54:00,
2013-05-03 10:59:00,62.6,41.0,30.44,ESE,104,1.0,8.0,45,0.00,FEW,OVC,0.00,WeatherDisplay:10.37,2013-05-03 14:59:00,
2013-05-03 11:04:00,63.0,41.3,30.43,East,95,2.0,9.0,45,0.00,FEW,OVC,0.00,WeatherDisplay:10.37,2013-05-03 15:04:00,
2013-05-03 11:09:00,63.8,40.9,30.44,ENE,78,1.0,5.0,43,0.00,FEW,OVC,0.00,WeatherDisplay:10.37,2013-05-03 15:09:00,
2013-05-03 11:14:00,62.8,40.6,30.43,East,101,1.0,6.0,44,0.00,SCT,OVC,0.00,WeatherDisplay:10.37,2013-05-03 15:14:00,
2013-05-03 11:19:00,64.1,40.5,30.43,East,83,3.0,8.0,42,0.00,SCT,OVC,0.00,WeatherDisplay:10.37,2013-05-03 15:19:00,
2013-05-03 11:24:00,64.1,40.5,30.43,East,94,2.0,5.0,42,0.00,SCT,OVC,0.00,WeatherDisplay:10.37,2013-05-03 15:24:00,
2013-05-03 11:29:00,63.7,40.8,30.43,ENE,78,1.0,9.0,43,0.00,SCT,OVC,0.00,WeatherDisplay:10.37,2013-05-03 15:29:00,
2013-05-03 11:34:00,63.6,40.1,30.43,ENE,68,3.0,9.0,42,0.00,SCT,OVC,0.00,WeatherDisplay:10.37,2013-05-03 15:34:00,
2013-05-03 11:39:00,63.6,40.7,30.42,East,96,2.0,9.0,43,0.00,SCT,OVC,0.00,WeatherDisplay:10.37,2013-05-03 15:39:00,
2013-05-03 11:44:00,64.7,41.7,30.42,ESE,117,0.0,5.0,43,0.00,SCT,OVC,0.00,WeatherDisplay:10.37,2013-05-03 15:44:00,
2013-05-03 11:49:00,65.2,40.9,30.43,ESE,102,1.0,7.0,41,0.00,SCT,OVC,0.00,WeatherDisplay:10.37,2013-05-03 15:49:00,
2013-05-03 11:54:00,65.1,41.4,30.42,ENE,58,1.0,5.0,42,0.00,SCT,OVC,0.00,WeatherDisplay:10.37,2013-05-03 15:54:00,
2013-05-03 11:59:00,64.8,41.2,30.42,ENE,74,2.0,8.0,42,0.00,SCT,OVC,0.00,WeatherDisplay:10.37,2013-05-03 15:59:00,
2013-05-03 12:04:00,64.3,40.7,30.42,ENE,59,1.0,8.0,42,0.00,SCT,OVC,0.00,WeatherDisplay:10.37,2013-05-03 16:04:00,
2013-05-03 12:09:00,65.4,40.4,30.42,ENE,58,2.0,8.0,40,0.00,SCT,OVC,0.00,WeatherDisplay:10.37,2013-05-03 16:09:00,
2013-05-03 12:14:00,64.7,40.4,30.41,East,81,1.0,6.0,41,0.00,SCT,OVC,0.00,WeatherDisplay:10.37,2013-05-03 16:14:00,
2013-05-03 12:19:00,65.4,41.7,30.41,ENE,75,2.0,7.0,42,0.00,SCT,OVC,0.00,WeatherDisplay:10.37,2013-05-03 16:19:00,
2013-05-03 12:24:00,64.8,39.3,30.41,ENE,60,1.0,7.0,39,0.00,SCT,OVC,0.00,WeatherDisplay:10.37,2013-05-03 16:24:00,
2013-05-03 12:29:00,64.7,39.8,30.41,ESE,109,1.0,7.0,40,0.00,SCT,OVC,0.00,WeatherDisplay:10.37,2013-05-03 16:29:00,
2013-05-03 12:34:00,66.0,39.6,30.41,SE,127,0.0,6.0,38,0.00,SCT,OVC,0.00,WeatherDisplay:10.37,2013-05-03 16:34:00,
2013-05-03 12:39:00,66.1,39.7,30.41,East,85,1.0,7.0,38,0.00,SCT,OVC,0.00,WeatherDisplay:10.37,2013-05-03 16:39:00,
2013-05-03 12:44:00,67.0,41.2,30.40,East,81,0.0,3.0,39,0.00,SCT,OVC,0.00,WeatherDisplay:10.37,2013-05-03 16:44:00,
2013-05-03 12:49:00,67.5,40.3,30.40,East,100,1.0,4.0,37,0.00,SCT,OVC,0.00,WeatherDisplay:10.37,2013-05-03 16:49:00,
2013-05-03 12:54:00,67.8,41.9,30.40,East,97,0.0,2.0,39,0.00,SCT,OVC,0.00,WeatherDisplay:10.37,2013-05-03 16:54:00,
2013-05-03 12:59:00,66.9,39.1,30.40,ENE,75,1.0,7.0,36,0.00,SCT,OVC,0.00,WeatherDisplay:10.37,2013-05-03 16:59:00,
2013-05-03 13:04:00,66.1,39.7,30.40,East,97,1.0,8.0,38,0.00,SCT,OVC,0.00,WeatherDisplay:10.37,2013-05-03 17:04:00,
2013-05-03 13:09:00,66.7,38.2,30.40,East,100,1.0,9.0,35,0.00,SCT,OVC,0.00,WeatherDisplay:10.37,2013-05-03 17:09:00,
2013-05-03 13:14:00,66.7,38.9,30.39,East,91,1.0,7.0,36,0.00,SCT,OVC,0.00,WeatherDisplay:10.37,2013-05-03 17:14:00,
2013-05-03 13:19:00,67.8,39.1,30.39,ESE,111,1.0,4.0,35,0.00,SCT,OVC,0.00,WeatherDisplay:10.37,2013-05-03 17:19:00,
2013-05-03 13:24:00,67.1,38.5,30.39,ESE,111,0.0,5.0,35,0.00,SCT,OVC,0.00,WeatherDisplay:10.37,2013-05-03 17:24:00,
2013-05-03 13:29:00,68.0,38.6,30.39,East,79,5.0,12.0,34,0.00,SCT,OVC,0.00,WeatherDisplay:10.37,2013-05-03 17:29:00,
2013-05-03 13:34:00,67.2,38.6,30.39,NE,44,0.0,5.0,35,0.00,SCT,OVC,0.00,WeatherDisplay:10.37,2013-05-03 17:34:00,
2013-05-03 13:39:00,67.8,38.4,30.39,ENE,74,1.0,8.0,34,0.00,SCT,OVC,0.00,WeatherDisplay:10.37,2013-05-03 17:39:00,
2013-05-03 13:44:00,68.2,37.2,30.38,ESE,102,0.0,4.0,32,0.00,SCT,OVC,0.00,WeatherDisplay:10.37,2013-05-03 17:44:00,
2013-05-03 13:49:00,68.2,39.5,30.38,ENE,69,1.0,7.0,35,0.00,SCT,OVC,0.00,WeatherDisplay:10.37,2013-05-03 17:49:00,
2013-05-03 13:54:00,68.5,39.0,30.38,NE,54,0.0,9.0,34,0.00,SCT,OVC,0.00,WeatherDisplay:10.37,2013-05-03 17:54:00,
2013-05-03 13:59:00,68.3,38.1,30.38,ENE,61,1.0,5.0,33,0.00,SCT,OVC,0.00,WeatherDisplay:10.37,2013-05-03 17:59:00,
2013-05-03 14:04:00,68.8,39.3,30.38,East,86,1.0,6.0,34,0.00,SCT,OVC,0.00,WeatherDisplay:10.37,2013-05-03 18:04:00,
2013-05-03 14:09:00,69.2,39.6,30.38,East,97,1.0,7.0,34,0.00,SCT,OVC,0.00,WeatherDisplay:10.37,2013-05-03 18:09:00,
2013-05-03 14:14:00,70.4,39.9,30.37,SE,124,1.0,3.0,33,0.00,FEW,OVC,0.00,WeatherDisplay:10.37,2013-05-03 18:14:00,
2013-05-03 14:19:00,70.5,37.5,30.37,ESE,110,1.0,3.0,30,0.00,FEW,OVC,0.00,WeatherDisplay:10.37,2013-05-03 18:19:00,
2013-05-03 14:24:00,69.9,37.8,30.37,East,80,1.0,5.0,31,0.00,FEW,OVC,0.00,WeatherDisplay:10.37,2013-05-03 18:24:00,
2013-05-03 14:29:00,70.0,39.6,30.37,NE,44,1.0,5.0,33,0.00,FEW,OVC,0.00,WeatherDisplay:10.37,2013-05-03 18:29:00,
2013-05-03 14:34:00,69.5,37.5,30.37,NE,53,1.0,5.0,31,0.00,FEW,OVC,0.00,WeatherDisplay:10.37,2013-05-03 18:34:00,
2013-05-03 14:39:00,69.6,38.4,30.36,NE,50,1.0,8.0,32,0.00,FEW,OVC,0.00,WeatherDisplay:10.37,2013-05-03 18:39:00,
2013-05-03 14:44:00,69.6,39.2,30.37,ENE,71,1.0,5.0,33,0.00,FEW,OVC,0.00,WeatherDisplay:10.37,2013-05-03 18:44:00,
2013-05-03 14:49:00,69.0,38.7,30.36,ENE,66,0.0,5.0,33,0.00,FEW,OVC,0.00,WeatherDisplay:10.37,2013-05-03 18:49:00,
2013-05-03 14:54:00,70.1,38.8,30.36,NE,53,1.0,4.0,32,0.00,FEW,OVC,0.00,WeatherDisplay:10.37,2013-05-03 18:54:00,
2013-05-03 14:59:00,71.0,39.6,30.36,ESE,103,2.0,5.0,32,0.00,FEW,OVC,0.00,WeatherDisplay:10.37,2013-05-03 18:59:00,
2013-05-03 15:04:00,71.4,39.2,30.36,South,175,0.0,3.0,31,0.00,FEW,OVC,0.00,WeatherDisplay:10.37,2013-05-03 19:04:00,
2013-05-03 15:09:00,70.8,39.5,30.35,South,184,0.0,3.0,32,0.00,FEW,OVC,0.00,WeatherDisplay:10.37,2013-05-03 19:09:00,
2013-05-03 15:14:00,70.4,39.1,30.35,South,176,1.0,7.0,32,0.00,FEW,OVC,0.00,WeatherDisplay:10.37,2013-05-03 19:14:00,
2013-05-03 15:19:00,70.7,37.7,30.35,SE,128,2.0,7.0,30,0.00,FEW,OVC,0.00,WeatherDisplay:10.37,2013-05-03 19:19:00,
2013-05-03 15:24:00,70.5,39.2,30.35,ENE,57,1.0,3.0,32,0.00,FEW,OVC,0.00,WeatherDisplay:10.37,2013-05-03 19:24:00,
2013-05-03 15:29:00,71.1,39.7,30.35,ENE,62,0.0,4.0,32,0.00,FEW,OVC,0.00,WeatherDisplay:10.37,2013-05-03 19:29:00,
2013-05-03 15:34:00,70.6,38.5,30.34,SSE,163,0.0,6.0,31,0.00,FEW,OVC,0.00,WeatherDisplay:10.37,2013-05-03 19:34:00,
2013-05-03 15:39:00,70.6,37.6,30.34,SSE,156,1.0,3.0,30,0.00,FEW,OVC,0.00,WeatherDisplay:10.37,2013-05-03 19:39:00,
2013-05-03 15:44:00,70.7,38.6,30.34,ESE,109,2.0,7.0,31,0.00,FEW,OVC,0.00,WeatherDisplay:10.37,2013-05-03 19:44:00,
2013-05-03 15:49:00,71.0,37.2,30.33,East,95,1.0,6.0,29,0.00,FEW,OVC,0.00,WeatherDisplay:10.37,2013-05-03 19:49:00,
2013-05-03 15:54:00,71.1,38.9,30.33,East,95,0.0,3.0,31,0.00,FEW,OVC,0.00,WeatherDisplay:10.37,2013-05-03 19:54:00,
2013-05-03 15:59:00,71.3,38.3,30.33,East,82,1.0,4.0,30,0.00,FEW,OVC,0.00,WeatherDisplay:10.37,2013-05-03 19:59:00,
2013-05-03 16:04:00,71.4,40.0,30.33,ENE,68,0.0,5.0,32,0.00,FEW,OVC,0.00,WeatherDisplay:10.37,2013-05-03 20:04:00,
2013-05-03 16:09:00,70.9,38.7,30.33,ENE,77,0.0,6.0,31,0.00,FEW,OVC,0.00,WeatherDisplay:10.37,2013-05-03 20:09:00,
2013-05-03 16:14:00,70.9,37.9,30.33,East,100,1.0,5.0,30,0.00,FEW,OVC,0.00,WeatherDisplay:10.37,2013-05-03 20:14:00,
2013-05-03 16:19:00,71.8,37.8,30.33,East,100,0.0,2.0,29,0.00,FEW,OVC,0.00,WeatherDisplay:10.37,2013-05-03 20:19:00,
2013-05-03 16:24:00,72.1,38.1,30.33,ESE,108,1.0,4.0,29,0.00,FEW,OVC,0.00,WeatherDisplay:10.37,2013-05-03 20:24:00,
2013-05-03 16:29:00,71.3,36.5,30.33,East,95,2.0,4.0,28,0.00,FEW,OVC,0.00,WeatherDisplay:10.37,2013-05-03 20:29:00,
2013-05-03 16:34:00,70.8,36.9,30.32,WNW,287,2.0,7.0,29,0.00,FEW,OVC,0.00,WeatherDisplay:10.37,2013-05-03 20:34:00,
2013-05-03 16:39:00,71.1,38.0,30.32,NW,310,0.0,3.0,30,0.00,FEW,OVC,0.00,WeatherDisplay:10.37,2013-05-03 20:39:00,
2013-05-03 16:44:00,71.1,38.1,30.32,ENE,73,1.0,3.0,30,0.00,FEW,OVC,0.00,WeatherDisplay:10.37,2013-05-03 20:44:00,
2013-05-03 16:49:00,71.5,38.4,30.32,East,81,1.0,8.0,30,0.00,FEW,OVC,0.00,WeatherDisplay:10.37,2013-05-03 20:49:00,
2013-05-03 16:54:00,71.0,38.0,30.32,ENE,61,0.0,13.0,30,0.00,FEW,OVC,0.00,WeatherDisplay:10.37,2013-05-03 20:54:00,
2013-05-03 16:59:00,71.0,38.0,30.32,ENE,68,1.0,5.0,30,0.00,FEW,OVC,0.00,WeatherDisplay:10.37,2013-05-03 20:59:00,
2013-05-03 17:04:00,70.9,37.0,30.32,SE,130,0.0,5.0,29,0.00,FEW,OVC,0.00,WeatherDisplay:10.37,2013-05-03 21:04:00,
2013-05-03 17:09:00,71.1,38.1,30.32,East,98,1.0,5.0,30,0.00,FEW,OVC,0.00,WeatherDisplay:10.37,2013-05-03 21:09:00,
2013-05-03 17:14:00,71.2,38.1,30.32,ENE,71,1.0,5.0,30,0.00,FEW,OVC,0.00,WeatherDisplay:10.37,2013-05-03 21:14:00,
2013-05-03 17:19:00,71.1,38.0,30.32,ESE,116,1.0,4.0,30,0.00,FEW,OVC,0.00,WeatherDisplay:10.37,2013-05-03 21:19:00,
2013-05-03 17:24:00,70.9,38.7,30.32,East,98,0.0,7.0,31,0.00,FEW,OVC,0.00,WeatherDisplay:10.37,2013-05-03 21:24:00,
2013-05-03 17:29:00,70.9,37.9,30.32,East,79,0.0,7.0,30,0.00,FEW,OVC,0.00,WeatherDisplay:10.37,2013-05-03 21:29:00,
2013-05-03 17:34:00,71.2,38.2,30.31,ENE,59,0.0,7.0,30,0.00,FEW,OVC,0.00,WeatherDisplay:10.37,2013-05-03 21:34:00,
2013-05-03 17:39:00,71.2,39.0,30.31,ENE,66,0.0,3.0,31,0.00,FEW,OVC,0.00,WeatherDisplay:10.37,2013-05-03 21:39:00,
2013-05-03 17:44:00,70.9,37.9,30.31,ENE,76,1.0,5.0,30,0.00,FEW,OVC,0.00,WeatherDisplay:10.37,2013-05-03 21:44:00,
2013-05-03 17:49:00,70.5,38.4,30.31,ESE,104,0.0,5.0,31,0.00,FEW,OVC,0.00,WeatherDisplay:10.37,2013-05-03 21:49:00,
2013-05-03 17:54:00,70.8,40.3,30.31,East,94,0.0,0.0,33,0.00,FEW,OVC,0.00,WeatherDisplay:10.37,2013-05-03 21:54:00,
2013-05-03 17:59:00,70.8,39.5,30.31,East,91,0.0,3.0,32,0.00,FEW,OVC,0.00,WeatherDisplay:10.37,2013-05-03 21:59:00,
2013-05-03 18:04:00,70.6,39.3,30.31,ESE,106,0.0,6.0,32,0.00,FEW,OVC,0.00,WeatherDisplay:10.37,2013-05-03 22:04:00,
2013-05-03 18:09:00,70.5,40.0,30.31,ESE,123,0.0,2.0,33,0.00,FEW,OVC,0.00,WeatherDisplay:10.37,2013-05-03 22:09:00,
2013-05-03 18:14:00,70.4,39.1,30.31,SE,146,0.0,3.0,32,0.00,FEW,OVC,0.00,WeatherDisplay:10.37,2013-05-03 22:14:00,
2013-05-03 18:19:00,70.5,39.2,30.31,SE,128,0.0,2.0,32,0.00,FEW,OVC,0.00,WeatherDisplay:10.37,2013-05-03 22:19:00,
2013-05-03 18:24:00,70.2,38.9,30.30,SE,143,0.0,3.0,32,0.00,FEW,OVC,0.00,WeatherDisplay:10.37,2013-05-03 22:24:00,
2013-05-03 18:29:00,69.9,39.5,30.30,ESE,114,0.0,5.0,33,0.00,FEW,OVC,0.00,WeatherDisplay:10.37,2013-05-03 22:29:00,
2013-05-03 18:34:00,69.9,39.5,30.30,SE,126,0.0,3.0,33,0.00,FEW,OVC,0.00,WeatherDisplay:10.37,2013-05-03 22:34:00,
2013-05-03 18:39:00,69.6,40.0,30.30,SE,145,0.0,3.0,34,0.00,FEW,OVC,0.00,WeatherDisplay:10.37,2013-05-03 22:39:00,
2013-05-03 18:44:00,69.3,39.7,30.30,ESE,117,0.0,3.0,34,0.00,FEW,OVC,0.00,WeatherDisplay:10.37,2013-05-03 22:44:00,
2013-05-03 18:49:00,69.1,40.3,30.30,East,80,0.0,2.0,35,0.00,FEW,OVC,0.00,WeatherDisplay:10.37,2013-05-03 22:49:00,
2013-05-03 18:54:00,68.8,39.3,30.30,East,81,0.0,2.0,34,0.00,FEW,OVC,0.00,WeatherDisplay:10.37,2013-05-03 22:54:00,
2013-05-03 18:59:00,68.5,40.5,30.30,East,87,0.0,3.0,36,0.00,FEW,OVC,0.00,WeatherDisplay:10.37,2013-05-03 22:59:00,
2013-05-03 19:04:00,68.6,39.1,30.30,ESE,106,1.0,3.0,34,0.00,FEW,OVC,0.00,WeatherDisplay:10.37,2013-05-03 23:04:00,
2013-05-03 19:09:00,68.4,40.4,30.30,ESE,107,0.0,3.0,36,0.00,FEW,OVC,0.00,WeatherDisplay:10.37,2013-05-03 23:09:00,
2013-05-03 19:14:00,68.3,40.3,30.30,ENE,67,0.0,3.0,36,0.00,FEW,OVC,0.00,WeatherDisplay:10.37,2013-05-03 23:14:00,
2013-05-03 19:19:00,68.0,40.7,30.30,NE,52,0.0,5.0,37,0.00,FEW,OVC,0.00,WeatherDisplay:10.37,2013-05-03 23:19:00,
2013-05-03 19:24:00,67.6,41.1,30.30,ENE,65,0.0,2.0,38,0.00,FEW,OVC,0.00,WeatherDisplay:10.37,2013-05-03 23:24:00,
2013-05-03 19:29:00,67.2,40.7,30.30,ENE,72,0.0,3.0,38,0.00,FEW,OVC,0.00,WeatherDisplay:10.37,2013-05-03 23:29:00,
2013-05-03 19:34:00,67.1,42.0,30.30,ENE,63,0.0,4.0,40,0.00,FEW,OVC,0.00,WeatherDisplay:10.37,2013-05-03 23:34:00,
2013-05-03 19:39:00,66.5,40.7,30.30,ENE,63,0.0,1.0,39,0.00,FEW,OVC,0.00,WeatherDisplay:10.37,2013-05-03 23:39:00,
2013-05-03 19:44:00,65.4,42.9,30.30,ENE,63,0.0,0.0,44,0.00,FEW,OVC,0.00,WeatherDisplay:10.37,2013-05-03 23:44:00,
2013-05-03 19:49:00,64.7,41.7,30.30,ENE,57,0.0,1.0,43,0.00,FEW,OVC,0.00,WeatherDisplay:10.37,2013-05-03 23:49:00,
2013-05-03 19:54:00,64.1,41.2,30.30,NE,48,0.0,1.0,43,0.00,FEW,OVC,0.00,WeatherDisplay:10.37,2013-05-03 23:54:00,
2013-05-03 19:59:00,63.7,42.5,30.30,NE,34,1.0,5.0,46,0.00,FEW,OVC,0.00,WeatherDisplay:10.37,2013-05-03 23:59:00,
2013-05-03 20:04:00,64.0,42.2,30.30,NE,46,1.0,4.0,45,0.00,FEW,OVC,0.00,WeatherDisplay:10.37,2013-05-04 00:04:00,
2013-05-03 20:09:00,64.1,42.3,30.30,ENE,66,0.0,4.0,45,0.00,FEW,OVC,0.00,WeatherDisplay:10.37,2013-05-04 00:09:00,
2013-05-03 20:14:00,63.9,42.1,30.30,ENE,68,0.0,1.0,45,0.00,FEW,OVC,0.00,WeatherDisplay:10.37,2013-05-04 00:14:00,
2013-05-03 20:19:00,63.3,42.2,30.30,ENE,61,0.0,0.0,46,0.00,FEW,OVC,0.00,WeatherDisplay:10.37,2013-05-04 00:19:00,
2013-05-03 20:24:00,62.9,42.4,30.30,NE,54,0.0,3.0,47,0.00,FEW,OVC,0.00,WeatherDisplay:10.37,2013-05-04 00:24:00,
2013-05-03 20:29:00,62.4,42.4,30.30,NE,56,0.0,2.0,48,0.00,FEW,OVC,0.00,WeatherDisplay:10.37,2013-05-04 00:29:00,
2013-05-03 20:34:00,62.1,42.2,30.30,NE,50,0.0,0.0,48,0.00,FEW,OVC,0.00,WeatherDisplay:10.37,2013-05-04 00:34:00,
2013-05-03 20:39:00,61.6,42.7,30.30,NE,50,0.0,0.0,50,0.00,FEW,OVC,0.00,WeatherDisplay:10.37,2013-05-04 00:39:00,
2013-05-03 20:44:00,61.2,42.9,30.31,NE,50,0.0,0.0,51,0.00,FEW,OVC,0.00,WeatherDisplay:10.37,2013-05-04 00:44:00,
2013-05-03 20:49:00,60.6,42.4,30.31,NE,49,0.0,0.0,51,0.00,FEW,OVC,0.00,WeatherDisplay:10.37,2013-05-04 00:49:00,
2013-05-03 20:54:00,60.2,43.0,30.31,NE,44,0.0,1.0,53,0.00,FEW,OVC,0.00,WeatherDisplay:10.37,2013-05-04 00:54:00,
2013-05-03 20:59:00,59.9,43.2,30.31,NNE,21,0.0,0.0,54,0.00,FEW,OVC,0.00,WeatherDisplay:10.37,2013-05-04 00:59:00,
2013-05-03 21:04:00,59.3,43.2,30.31,NNE,17,0.0,0.0,55,0.00,FEW,OVC,0.00,WeatherDisplay:10.37,2013-05-04 01:04:00,
2013-05-03 21:09:00,58.8,42.6,30.31,NNE,17,0.0,0.0,55,0.00,FEW,OVC,0.00,WeatherDisplay:10.37,2013-05-04 01:09:00,
2013-05-03 21:14:00,58.3,42.7,30.31,NNE,17,0.0,0.0,56,0.00,FEW,OVC,0.00,WeatherDisplay:10.37,2013-05-04 01:14:00,
2013-05-03 21:19:00,57.9,42.3,30.31,NNE,17,0.0,0.0,56,0.00,FEW,OVC,0.00,WeatherDisplay:10.37,2013-05-04 01:19:00,
2013-05-03 21:24:00,57.2,43.5,30.31,NNE,17,0.0,0.0,60,0.00,FEW,OVC,0.00,WeatherDisplay:10.37,2013-05-04 01:24:00,
2013-05-03 21:29:00,56.6,43.7,30.31,NNE,17,0.0,0.0,62,0.00,FEW,OVC,0.00,WeatherDisplay:10.37,2013-05-04 01:29:00,
2013-05-03 21:34:00,56.0,44.0,30.31,NNE,17,0.0,0.0,64,0.00,FEW,OVC,0.00,WeatherDisplay:10.37,2013-05-04 01:34:00,
2013-05-03 21:39:00,55.7,44.5,30.31,NNE,17,0.0,0.0,66,0.00,FEW,OVC,0.00,WeatherDisplay:10.37,2013-05-04 01:39:00,
2013-05-03 21:44:00,55.3,44.1,30.31,NNE,17,0.0,0.0,66,0.00,FEW,OVC,0.00,WeatherDisplay:10.37,2013-05-04 01:44:00,
2013-05-03 21:49:00,54.9,44.1,30.31,NNE,17,0.0,0.0,67,0.00,FEW,OVC,0.00,WeatherDisplay:10.37,2013-05-04 01:49:00,
2013-05-03 21:54:00,54.8,44.1,30.31,NNE,17,0.0,0.0,67,0.00,FEW,OVC,0.00,WeatherDisplay:10.37,2013-05-04 01:54:00,
2013-05-03 21:59:00,54.5,44.2,30.31,NNE,17,0.0,0.0,68,0.00,FEW,OVC,0.00,WeatherDisplay:10.37,2013-05-04 01:59:00,
2013-05-03 22:04:00,54.2,43.9,30.31,NNE,17,0.0,0.0,68,0.00,FEW,OVC,0.00,WeatherDisplay:10.37,2013-05-04 02:04:00,
2013-05-03 22:09:00,54.1,43.7,30.31,NNE,17,0.0,0.0,68,0.00,FEW,OVC,0.00,WeatherDisplay:10.37,2013-05-04 02:09:00,
2013-05-03 22:14:00,54.1,44.1,30.31,NNE,17,0.0,0.0,69,0.00,SKC,OVC,0.00,WeatherDisplay:10.37,2013-05-04 02:14:00,
2013-05-03 22:19:00,53.7,44.2,30.31,NNE,17,0.0,0.0,70,0.00,SKC,OVC,0.00,WeatherDisplay:10.37,2013-05-04 02:19:00,
2013-05-03 22:24:00,53.4,43.9,30.31,NNE,17,0.0,0.0,70,0.00,SKC,OVC,0.00,WeatherDisplay:10.37,2013-05-04 02:24:00,
2013-05-03 22:29:00,53.2,43.7,30.31,NNE,17,0.0,0.0,70,0.00,SKC,OVC,0.00,WeatherDisplay:10.37,2013-05-04 02:29:00,
2013-05-03 22:34:00,53.1,43.6,30.31,NNE,17,0.0,0.0,70,0.00,SKC,OVC,0.00,WeatherDisplay:10.37,2013-05-04 02:34:00,
2013-05-03 22:39:00,52.9,43.4,30.31,NNE,17,0.0,0.0,70,0.00,SKC,OVC,0.00,WeatherDisplay:10.37,2013-05-04 02:39:00,
2013-05-03 22:44:00,52.9,43.0,30.31,NNE,17,0.0,0.0,69,0.00,SKC,OVC,0.00,WeatherDisplay:10.37,2013-05-04 02:44:00,
2013-05-03 22:49:00,53.1,43.6,30.31,NNE,17,0.0,0.0,70,0.00,SKC,OVC,0.00,WeatherDisplay:10.37,2013-05-04 02:49:00,
2013-05-03 22:54:00,53.0,43.8,30.31,NNE,17,0.0,0.0,71,0.00,SKC,OVC,0.00,WeatherDisplay:10.37,2013-05-04 02:54:00,
2013-05-03 22:59:00,53.0,43.5,30.31,NNE,17,0.0,0.0,70,0.00,SKC,OVC,0.00,WeatherDisplay:10.37,2013-05-04 02:59:00,
2013-05-03 23:04:00,53.0,43.5,30.31,NNE,17,0.0,0.0,70,0.00,SKC,OVC,0.00,WeatherDisplay:10.37,2013-05-04 03:04:00,
2013-05-03 23:09:00,53.7,43.0,30.31,NNE,17,0.0,0.0,67,0.00,SKC,OVC,0.00,WeatherDisplay:10.37,2013-05-04 03:09:00,
2013-05-03 23:14:00,54.6,42.6,30.31,NNE,17,0.0,0.0,64,0.00,SKC,OVC,0.00,WeatherDisplay:10.37,2013-05-04 03:14:00,
2013-05-03 23:19:00,55.1,43.5,30.31,NNE,20,0.0,1.0,65,0.00,SKC,OVC,0.00,WeatherDisplay:10.37,2013-05-04 03:19:00,
2013-05-03 23:24:00,55.1,42.8,30.31,NNW,327,0.0,0.0,63,0.00,SKC,OVC,0.00,WeatherDisplay:10.37,2013-05-04 03:24:00,
2013-05-03 23:29:00,55.1,42.3,30.31,North,351,0.0,0.0,62,0.00,SKC,OVC,0.00,WeatherDisplay:10.37,2013-05-04 03:29:00,
2013-05-03 23:34:00,55.6,42.8,30.31,NE,41,0.0,0.0,62,0.00,SKC,OVC,0.00,WeatherDisplay:10.37,2013-05-04 03:34:00,
2013-05-03 23:39:00,55.8,42.5,30.31,East,96,0.0,0.0,61,0.00,SKC,OVC,0.00,WeatherDisplay:10.37,2013-05-04 03:39:00,
2013-05-03 23:44:00,56.2,42.5,30.31,ESE,108,0.0,1.0,60,0.00,SKC,OVC,0.00,WeatherDisplay:10.37,2013-05-04 03:44:00,
2013-05-03 23:49:00,56.3,42.6,30.31,East,86,0.0,1.0,60,0.00,SKC,OVC,0.00,WeatherDisplay:10.37,2013-05-04 03:49:00,
2013-05-03 23:54:00,56.2,42.5,30.31,East,84,0.0,0.0,60,0.00,SKC,OVC,0.00,WeatherDisplay:10.37,2013-05-04 03:54:00,
2013-05-03 23:59:00,56.2,42.5,30.31,East,84,0.0,0.0,60,0.00,SKC,OVC,0.00,WeatherDisplay:10.37,2013-05-04 03:59:00,